Preview of NWS' New Version of Forecast
This preview is not operational and should not be used for support decisions.

Regional Weather Roundup (RWR)

Issued by National Weather Service (NWS)

                            
000
ASUS42 KTBW 240315
RWRFL 
FLORIDA REGIONAL WEATHER ROUNDUP
NATIONAL WEATHER SERVICE TAMPA BAY RUSKIN FL
1100 PM EDT SUN JUN 23 2019

NOTE: "FAIR" INDICATES FEW OR NO CLOUDS BELOW 12,000 FEET WITH NO
SIGNIFICANT WEATHER AND/OR OBSTRUCTIONS TO VISIBILITY.

FLZ001>010-012>015-112-114-115-240400-
PANHANDLE FLORIDA
  
CITY           SKY/WX    TMP DP  RH WIND       PRES   REMARKS
PENSACOLA      FAIR      84  79  85 S9        30.01R HX  96           
PENSACOLA NAS  FAIR      84  80  88 S10       30.00R HX  97           
CRESTVIEW      FAIR      79  73  82 S5        30.03R HAZE             
DUKE FIELD     FAIR      80  75  86 S5        30.01S HAZE             
VALPARAISO     FAIR      83  76  77 S7        30.01R                  
MARY ESTHER    PTCLDY    84  74  73 S8        30.00R                  
TRI COUNTY     FAIR      79  75  87 S3        30.02R                  
PANAMA CITY    FAIR      81  75  82 S5        30.01S                  
TYNDALL AFB    FAIR      83  74  75 SW9       30.01S                  
APALACHICOLA   FAIR      83  73  72 SW8       30.02F                  

STATION/POSITION SKY/WX   TEMP    WIND        PRES    WAVE   SWELL
                          AIR SEA DIR/SP/G            HT/PER HT/PER
                          (F)     (DEG/KT/KT) (MB)    (FT/S) (FT/S)
PANAMA CITY BEAC           84 85  200/ 10/ 11 1017.1R
TOWER C          NOT AVBL

$$
FLZ011-016>038-118-127-128-134-139-239-240400-
NORTH FLORIDA
  
CITY           SKY/WX    TMP DP  RH WIND       PRES   REMARKS
MARIANNA       FAIR      80  72  76 SW7       30.01R                  
TALLAHASSEE    FAIR      78  74  87 W3        30.02S                  
PERRY          FAIR      80  77  91 CALM      30.05R                  
LIVE OAK       CLEAR     81  77  89 CALM      30.03R                  
CROSS CITY     FAIR      79  76  90 SW3       30.04R                  
LAKE CITY      FAIR      79  72  78 CALM      30.05R                  
GAINESVILLE    FAIR      80  74  81 W5        30.07R                  
PALATKA        MOCLDY    81  70  69 CALM      30.06R                  
MAYPORT NAS    FAIR      80  71  74 SE6       30.05R THUNDER          
JACKSONVILLE   MOCLDY    76  72  87 N8        30.04R                  
JAX NAS        CLOUDY    80  72  76 E8        30.05R                  
JAX CECIL      NOT AVBL                                               
FERNANDINA BEA FAIR      75  74  95 S8        30.05R                  
ST AUGUSTINE   FAIR      76  73  91 SE6       30.06R                  
PALM COAST     CLOUDY    77  70  77 NE8       30.07R                  

STATION/POSITION SKY/WX   TEMP    WIND        PRES    WAVE   SWELL
                          AIR SEA DIR/SP/G            HT/PER HT/PER
                          (F)     (DEG/KT/KT) (MB)    (FT/S) (FT/S)
SHELL POINT      NOT AVBL
KEATON BEACH               84     250/ 12/ 13 1017.2R
CEDAR KEY                  84     280/  5/  8 1017.6R
FERNANDINA                 80 86  340/  2/  3 1017.8R
30.7N   81.3W                 83                N/A     2/ 3
MAYPORT                    78 84  160/  3/  7 1017.6F
ST AUGUSTINE               78 82  140/  3/  4 1017.6S

$$
FLZ040-043>046-052-053-057-058-063-144-240400-
INTERIOR CENTRAL FLORIDA
  
CITY           SKY/WX    TMP DP  RH WIND       PRES   REMARKS
OCALA          FAIR      78  73  84 S3        30.06R                  
LEESBURG       FAIR      81  73  76 W5        30.06R                  
SANFORD        FAIR      82  70  66 S5        30.05R                  
ORLANDO EXEC   FAIR      84  70  62 CALM      30.06R                  
ORLANDO INTL   FAIR      79  73  82 S3        30.06R                  
KISSIMMEE      FAIR      82  76  81 CALM      30.07R                  
WINTER HAVEN   FAIR      83  71  67 NW5       30.07R                  
LAKELAND       FAIR      81  72  74 NW6       30.07R                  
BARTOW         FAIR      84  72  65 N3        30.05R                  
SEBRING        FAIR      82  77  85 NE6       30.05R                  
OKEECHOBEE     FAIR      79  75  89 E3        30.04R                  

$$
FLZ041-047-054-059-064-141-147-240400-
EAST CENTRAL FLORIDA
  
CITY           SKY/WX    TMP DP  RH WIND       PRES   REMARKS
DAYTONA BEACH  FAIR      77  75  93 S3        30.05R                  
DELAND         FAIR      82  72  69 SW3       30.05R                  
JFK SPACE CTR  FAIR      78  64  61 CALM      30.04R                  
CAPE CANAVERAL FAIR      74  40  28 CALM      30.04R                  
PATRICK AFB    FAIR      79  79  99 S6        30.04R                  
MELBOURNE      FAIR      82  74  76 S5        30.04R                  
VERO BEACH     FAIR      83  75  77 SE7       30.04S                  
FT PIERCE      FAIR      83  75  77 SE3       30.04S                  
STUART         CLOUDY    82  77  83 SE5       30.06R                  

STATION/POSITION SKY/WX   TEMP    WIND        PRES    WAVE   SWELL
                          AIR SEA DIR/SP/G            HT/PER HT/PER
                          (F)     (DEG/KT/KT) (MB)    (FT/S) (FT/S)
TRIDENT PIER               77 75  150/  5/  5 1018.6R
28.4N   80.5W                 75                N/A     1/10
27.5N   80.2W                 82                N/A     1/10

$$
FLZ050-056-061-142-242-148-248-149-249-151-251-155-255-
160-260-240400-
WEST CENTRAL FLORIDA
  
CITY           SKY/WX    TMP DP  RH WIND       PRES   REMARKS
CRYSTAL RIVER  FAIR     N/A N/A N/A CALM      30.05R                  
INVERNESS      FAIR      77  77 100 CALM      30.06R                  
BROOKSVILLE    FAIR      76  73  91 CALM      30.07R                  
CLEARWATER AIR FAIR      81  72  74 NW3       30.06R                  
ST PETE CLEARW FAIR      80  74  81 W3        30.06R                  
TAMPA INTL     FAIR      83  74  74 NW5       30.06R                  
PLANT CITY       N/A    N/A N/A N/A MISG        N/A                   
MACDILL AFB    FAIR      82  74  76 NW7       30.05R                  
PETER O KNIGHT MOCLDY    82  77  83 CALM      30.06R                  
ST PETERSBURG  FAIR      84  75  74 N5        30.04R                  
SARASOTA       FAIR      81  74  79 N5        30.03S                  
VENICE         FAIR      84  77  79 NW6       30.05S                  

STATION/POSITION SKY/WX   TEMP    WIND        PRES    WAVE   SWELL
                          AIR SEA DIR/SP/G            HT/PER HT/PER
                          (F)     (DEG/KT/KT) (MB)    (FT/S) (FT/S)
27.3N   84.2W                 86                N/A     1/ 8
CLEARWATER BEACH           84 90  280/  4/  7 1017.7
MIDDLE TAMPA BAY           84     340/  6/  8 1017.7R
VENICE                     85 86  310/  7/  8 1017.4S

$$
FLZ066-069-070-075>078-162-262-165-265-240400-
SOUTHWEST FLORIDA AND KEYS
  
CITY           SKY/WX    TMP DP  RH WIND       PRES   REMARKS
PUNTA GORDA    FAIR      83  76  79 NW9       30.05S                  
FT MYERS       FAIR      84  72  67 W8        30.03R                  
SOUTHWEST INTL FAIR      84  75  74 CALM      30.04R                  
NAPLES         FAIR      85  78  80 W6        30.03S HX  96           
IMMOKALEE      FAIR      82  75  78 W3        30.02R                  
MARATHON       FAIR      85  76  74 E3        30.05R                  
KEY WEST NAS   FAIR      85  75  72 SE6       30.04F                  
KEY WEST INTL  FAIR      84  75  74 SE6       30.05S                  

STATION/POSITION SKY/WX   TEMP    WIND        PRES    WAVE   SWELL
                          AIR SEA DIR/SP/G            HT/PER HT/PER
                          (F)     (DEG/KT/KT) (MB)    (FT/S) (FT/S)
NAPLES                     87 91              1017.1S
DRY TORTUGAS     NOT AVBL

$$
FLZ067-068-071>074-168-172>174-240400-
SOUTHEAST FLORIDA 
  
CITY           SKY/WX    TMP DP  RH WIND       PRES   REMARKS
W PALM BEACH   FAIR      85  75  72 S7        30.05R                  
BOCA RATON     CLEAR     84  77  79 S5        30.04R                  
FT LAUDER-EXEC FAIR      84  76  76 SE3       30.03S                  
FT LAUDERDALE  FAIR      85  75  72 S7        30.03R                  
POMPANO BEACH  FAIR      85  77  77 S6        30.04R HX  95           
PEMBROKE PINES FAIR      85  74  69 S5        30.05R                  
OPA LOCKA      FAIR      84  75  74 S6        30.05R                  
MIAMI          FAIR      85  74  69 SW8       30.05R                  
WEST KENDALL   FAIR      79  70  74 CALM      30.06R                  
HOMESTEAD      FAIR      81  73  77 W5        30.05R                  

STATION/POSITION SKY/WX   TEMP    WIND        PRES    WAVE   SWELL
                          AIR SEA DIR/SP/G            HT/PER HT/PER
                          (F)     (DEG/KT/KT) (MB)    (FT/S) (FT/S)
VIRGINIA KEY               85 90  120/  5/  7 1016.5
LAKE WORTH                 84 85  170/  9/ 10 1018.4S
FOWEY ROCKS                84 85  150/  8/  9 1017.8R
SETTLEMENT POINT           85     190/  2/  2 1017.6S

$$